Probability
0 0 0 0 0 0 0 0 0 0 0 0 0 0 0 0 0 0 0 0 0 0 0 0 0 0 0 0 0 0 0 0 0 0 0 0 0 0 0 0 0 0 0 0
0 0 0 0 0 0 0 0 0 0 0 0 0 0 0 0 0 0 0 0 0 0 0 0 0 0 0 0 0 0 0 0 0 0 0 0 0 0 0 0 0 0 0 0
0 0 0 0 0 0 0 0 0 0 0 0 0 0 0 0 0 0 0 0 0 0 0 0 0 0 0 0 0 0 0 0 0 0 0 0 0 0 0 0 0 0 0 0
0 0 0 0 0 0 0 0 0 0 0 0 0 0 0 0 0 0 0 0 0 0 0 0 0 0 0 0 0 0 0 0 0 0 0 0 0 0 0 0 0 0 0 0
0 0 0 0 0 0 0 0 0 0 0 0 0 0 0 0 0 0 0 0 0 0 0 0 0 0 0 0 0 0 0 0 0 0 0 0 0 0 0 0 0 0 0 0
0 0 0 0 0 0 0 0 0 0 0 0 0 0 0 0 0 0 0 0 0 0 0 0 0 0 0 0 0 0 0 0 0 0 0 0 0 0 0 0 0 0 0 0
0 0 0 0 0 0 0 0 0 0 0 0 0 0 0 0 0 0 0 0 0 0 0 0 0 0 0 0 0 0 0 0 0 0 0 0 0 0 0 0 0 0 0 0
0 0 0 0 0 0 0 0 0 0 0 0 0 0 0 0 0 0 0 0 0 0 0 0 0 0 0 0 0 0 0 0 0 0 0 0 0 0 0 0 0 0 0 0
0 0 0 0 0 0 0 0 0 0 0 0 0 0 0 0 0 0 0 0 0 0 0 0 0 0 0 0 0 0 0 0 0 0 0 0 0 0 0 0 0 0 0 0
0 0 0 0 0 0 0 0 0 0 0 0 0 0 0 0 0 0 0 0 0 0 0 0 0 0 0 0 0 0 0 0 0 0 0 0 0 0 0 0 0 0 0 0
0 0 0 0 0 0 0 0 0 0 0 0 0 0 0 0 0 0 0 0 0 0 0 0 0 0 0 0 0 0 0 0 0 0 0 0 0 0 0 0 0 0 0 0
0 0 0 0 0 0 0 0 0 0 0 0 0 0 0 0 0 0 0 0 0 0 0 0 0 0 0 0 0 0 0 0 0 0 0 0 0 0 0 0 0 0 0 0
0 0 0 0 0 0 0 0 0 0 0 0 0 0 0 0 0 0 0 0 0 0 0 0 0 0 0 0 0 0 0 0 0 0 0 0 0 0 0 0 0 0 0 0
0 0 0 0 0 0 0 0 0 0 0 0 0 0 0 0 0 0 0 0 0 0 0 0 0 0 0 0 0 0 0 0 0 0 0 0 0 0 0 0 0 0 0 0
0 0 0 0 0 0 0 0 0 0 0 0 0 0 0 0 0 0 0 0 0 0 0 0 0 0 0 0 0 0 0 0 0 0 0 0 0 0 0 0 0 0 0 0
0 0 0 0 0 0 0 0 0 0 0 0 0 0 0 0 0 0 0 0 0 0 0 0 0 0 0 0 0 0 0 0 0 0 0 0 0 0 0 0 0 0 0 0
0 0 0 0 0 0 0 0 0 0 0 0 0 0 0 0 0 0 0 0 0 0 0 0 0 0 0 0 0 0 0 0 0 0 0 0 0 0 0 0 0 0 0 0
0 0 0 0 0 0 0 0 0 0 0 0 0 0 0 0 0 0 0 0 0 0 0 0 0 0 0 0 0 0 0 0 0 0 0 0 0 0 0 0 0 0 0 0
0 0 0 0 0 0 0 0 0 0 0 0 0 0 0 0 0 0 0 0 0 0 0 0 0 0 0 0 0 0 0 0 0 0 0 0 0 0 0 0 0 0 0 0
0 0 0 0 0 0 0 0 0 0 0 0 0 0 0 0 0 0 0 0 0 0 0 0 0 0 0 0 0 0 0 0 0 0 0 0 0 0 0 0 0 0 0 0
0 0 0 0 0 0 0 0 0 0 0 0 0 0 0 0 0 0 0 0 0 0 0 0 0 0 0 0 0 0 0 0 0 0 0 0 0 0 0 0 0 0 0 0
0 0 0 0 0 0 0 0 0 0 0 0 0 0 0 0 0 0 0 0 0 0 0 0 0 0 0 0 0 0 0 0 0 0 0 0 0 0 0 0 0 0 0 0
0 0 0 0 0 0 0 0 0 0 0 0 0 0 0 0 0 0 0 0 0 0 0 0 0 0 0 0 0 0 0 0 0 0 0 0 0 0 0 0 0 0 0 0
0 0 0 0 0 0 0 0 0 0 0 0 0 0 0 0 0 0 0 0 0 0 0 0 0 0 0 0 0 0 0 0 0 0 0 0 0 0 0 0 0 0 0 0
0 0 0 0 0 0 0 0 0 0 0 0 0 0 0 0 0 0 0 0 0 0 0 0 0 0 0 0 0 0 0 0 0 0 0 0 0 0 0 0 0 0 0 0
0 0 0 0 0 0 0 0 0 0 0 0 0 0 0 0 0 0 0 0 0 0 0 0 0 0 0 0 0 0 0 0 0 0 0 0 0 0 0 0 0 0 0 0
Wind_Speed
5 5 11 18 20 15 10 10 14 16 7 7 14 19 20 16 11 13 13 13 14 18 21 14 12 15 14 15 17 20 20 18 15 13 12 10 11 8 8 8 9 9 8 8
3 12 20 13 8 9 10 12 16 14 11 9 13 21 16 16 15 16 17 18 19 18 18 17 12 12 17 20 21 21 21 21 20 15 12 7 7 5 6 6 7 9 10 9
15 10 10 10 8 10 14 15 20 16 9 7 12 17 12 14 17 15 15 17 19 20 22 21 13 14 16 20 23 21 23 21 20 14 9 6 4 3 5 7 8 10 10 10
11 9 7 9 11 15 18 14 18 14 11 10 7 26 11 13 16 16 19 18 20 21 21 21 15 13 18 22 20 20 21 19 18 16 16 16 13 13 12 7 7 8 10 10
10 5 8 13 16 15 16 8 9 8 8 10 5 16 15 10 12 15 19 20 21 22 21 21 19 17 17 16 17 17 18 18 18 19 19 18 15 10 6 6 9 9 8 10
10 5 7 10 6 9 7 1 2 3 1 13 11 14 26 12 15 12 16 18 19 21 21 22 14 9 10 11 13 14 17 18 19 20 19 20 18 13 11 10 12 10 7 8
8 7 7 6 4 3 5 4 3 5 3 15 9 13 16 10 13 17 19 19 20 20 21 16 8 9 11 15 16 16 19 19 19 20 20 21 19 18 18 15 14 12 9 10
7 13 9 9 13 11 10 12 11 10 11 11 5 16 13 9 10 10 12 14 16 15 10 8 8 11 13 16 17 18 20 19 20 21 21 18 17 14 13 14 13 14 12 12
11 15 5 8 8 9 7 11 12 9 8 11 12 12 12 7 9 12 15 15 14 10 8 8 7 9 12 15 19 21 21 19 20 21 18 16 17 17 15 13 11 10 9 9
10 13 9 2 2 4 8 6 4 8 8 11 13 15 16 10 12 13 11 11 12 9 8 8 8 9 10 12 13 13 16 19 18 17 17 15 16 16 13 10 13 12 11 11
4 7 9 2 9 10 6 5 8 7 8 10 12 15 14 10 8 9 10 9 9 10 10 10 9 8 8 8 9 12 13 13 13 15 15 14 14 13 12 12 14 13 13 13
7 7 12 13 10 8 10 14 13 12 15 11 11 16 23 15 12 13 15 15 14 12 10 9 8 6 7 10 11 14 15 15 16 15 14 14 12 12 14 15 14 14 15 15
6 8 11 8 8 7 10 15 19 17 14 15 19 17 21 17 17 15 14 12 10 9 9 8 7 8 10 12 13 14 16 17 15 13 13 13 13 15 17 16 14 15 15 15
16 14 19 23 16 8 8 10 13 15 15 21 25 23 20 26 27 20 13 11 10 10 11 11 11 11 12 12 14 15 16 16 14 14 15 16 18 19 17 14 14 16 16 17
9 15 22 26 27 26 27 23 19 23 23 24 22 21 21 26 28 21 15 10 9 10 10 12 13 12 12 11 12 13 14 13 13 14 16 19 17 14 12 14 15 16 16 17
7 12 16 24 23 25 29 29 31 32 30 31 31 32 29 29 25 26 25 15 9 10 11 12 13 14 13 13 13 13 13 13 13 16 17 14 12 13 14 15 15 16 16 15
7 10 15 24 21 21 25 23 29 28 27 29 33 32 24 23 22 21 14 12 11 13 13 13 13 13 13 13 12 13 14 11 12 14 13 12 13 14 15 15 16 17 16 15
17 19 14 15 17 28 16 11 19 25 28 26 21 15 14 17 17 7 16 16 17 18 18 18 17 16 13 10 8 8 6 7 10 11 11 12 13 14 13 15 16 15 13 14
19 19 12 10 19 20 9 6 10 12 11 12 15 18 21 23 13 6 19 18 15 14 13 12 12 13 14 12 10 6 4 5 7 10 11 12 14 14 15 16 16 12 13 12
4 6 10 11 15 14 4 15 17 11 4 14 16 17 21 22 14 11 20 18 17 15 12 11 12 11 12 12 9 6 4 3 6 7 7 9 12 15 16 16 14 11 12 12
6 6 7 11 12 5 7 14 15 6 8 14 13 13 13 11 10 16 18 15 12 12 13 12 12 11 11 10 9 8 6 6 4 1 3 6 9 11 12 12 11 13 12 12
4 5 6 5 7 5 12 11 7 9 9 9 9 8 9 11 14 13 13 13 14 14 13 12 13 14 12 9 8 9 9 5 1 2 4 6 8 8 9 11 12 12 13 14
7 7 4 5 8 14 12 9 9 7 8 7 6 7 10 13 15 15 15 14 14 13 13 12 13 16 14 9 7 11 10 3 3 4 6 6 7 9 11 13 14 13 13 12
7 5 7 10 11 15 16 11 7 5 6 5 5 6 9 12 14 15 15 15 15 14 13 13 14 16 17 12 10 12 10 5 6 8 9 9 10 11 11 11 12 13 14 14
11 8 10 15 17 15 11 9 6 4 4 5 6 8 10 11 14 14 14 15 15 16 14 13 15 17 19 16 14 12 9 7 10 11 10 10 11 12 13 13 13 15 13 14
14 17 17 18 18 15 17 12 6 6 6 7 10 13 12 12 15 16 15 14 14 16 16 16 17 19 20 19 19 16 10 9 12 11 11 11 10 11 11 11 10 19 16 20
Wind_Direction
163 143 207 214 208 217 224 232 245 253 244 201 227 240 251 261 255 253 254 253 249 248 251 245 218 209 204 199 194 190 188 184 177 180 182 184 191 188 189 191 186 180 174 168
117 223 225 225 220 236 249 256 260 269 254 233 248 249 250 256 253 245 246 248 248 250 258 254 229 204 200 199 196 192 190 185 185 188 186 177 169 181 188 186 184 182 177 174
205 224 220 221 219 225 231 232 249 253 279 279 288 272 233 244 249 252 247 245 246 245 250 256 238 211 202 200 196 193 190 187 186 175 160 140 132 129 178 194 191 189 182 179
239 241 204 201 217 216 247 227 242 254 263 262 239 284 244 225 241 246 248 247 247 248 249 252 243 216 205 204 195 192 187 184 180 171 174 175 187 196 196 186 182 183 184 182
243 223 203 214 221 207 237 236 237 248 253 273 189 270 273 191 229 241 243 242 245 247 246 246 238 222 209 197 188 187 182 181 178 179 183 187 196 197 168 163 175 184 187 185
247 235 217 219 228 216 235 103 2 41 32 270 194 233 276 173 211 228 237 240 242 246 247 247 241 211 195 182 180 178 179 183 181 184 187 193 196 184 177 184 186 188 186 187
281 247 229 188 216 217 160 161 313 310 264 256 181 223 264 202 204 214 226 236 241 243 246 250 228 195 187 182 182 181 182 186 186 188 193 198 198 192 196 192 193 189 187 194
272 275 216 199 200 206 196 179 195 222 242 267 202 237 256 239 248 254 252 248 250 255 263 256 220 200 194 189 185 184 187 189 188 193 199 199 196 197 203 198 194 196 199 197
226 259 224 203 204 179 180 207 211 213 256 275 261 263 289 259 265 257 256 260 268 280 281 259 236 209 197 192 192 191 191 192 194 197 198 198 198 201 203 195 191 194 191 181
221 264 282 242 171 238 186 184 144 177 205 241 260 268 267 258 245 256 265 270 272 271 265 257 242 224 210 202 198 196 198 199 197 197 198 200 201 204 198 184 194 192 183 176
248 265 286 267 201 212 187 199 206 210 205 218 243 254 256 245 236 248 261 262 263 260 254 249 242 229 215 202 196 199 202 201 199 200 201 200 199 196 188 194 196 187 179 176
199 228 251 252 243 219 214 215 205 221 235 229 241 247 261 255 252 255 266 275 283 281 274 264 254 237 217 211 207 206 205 205 207 203 200 203 196 186 193 200 194 183 180 178
210 228 258 260 271 236 220 224 229 238 249 244 248 249 262 268 263 255 254 259 266 273 276 275 259 236 226 220 214 211 209 210 208 200 199 199 195 194 201 201 189 181 178 176
264 242 248 260 260 268 251 244 237 234 243 249 248 254 261 269 270 269 260 260 264 267 270 269 263 250 237 226 218 213 214 211 204 199 200 203 203 204 203 193 183 180 177 175
259 254 253 258 262 261 260 258 252 248 247 252 256 257 256 262 271 278 279 271 261 256 256 257 257 256 246 235 227 219 218 209 200 199 204 209 207 200 188 182 181 178 178 178
297 278 278 272 267 263 262 258 257 257 257 258 260 260 260 264 274 279 280 283 277 270 265 261 257 255 251 241 232 222 219 208 195 202 209 206 192 186 185 182 177 176 177 174
260 268 282 281 281 280 265 255 255 257 254 258 261 263 269 272 271 275 305 357 358 344 331 311 289 273 260 251 237 227 220 203 194 203 204 192 185 185 183 176 174 177 176 171
243 254 260 269 272 263 263 247 253 260 261 266 275 305 324 312 297 7 39 24 12 2 352 344 335 323 310 297 280 254 229 197 197 200 196 186 182 181 174 173 178 176 171 173
234 240 249 252 261 269 279 340 331 295 287 19 13 9 1 345 322 69 26 4 348 340 332 327 326 325 327 330 322 298 252 207 198 201 196 186 180 175 173 178 178 171 169 170
298 266 258 264 268 273 359 355 327 296 247 32 19 11 1 358 353 341 342 333 326 322 321 319 321 322 330 332 333 329 306 255 230 220 202 182 176 176 179 179 172 167 167 167
340 318 273 267 268 257 39 360 355 343 341 359 358 346 340 333 304 298 308 311 308 307 311 314 316 317 317 319 326 321 306 280 278 245 174 174 179 180 176 169 165 161 161 159
302 291 281 282 263 236 23 9 359 302 309 317 316 314 309 301 299 300 306 311 315 315 316 318 316 313 310 309 310 301 289 282 253 177 177 178 175 169 164 161 162 163 161 161
233 228 253 257 274 299 308 292 268 259 285 299 299 302 305 306 308 314 315 314 313 314 313 313 311 308 306 301 289 285 284 264 201 189 193 186 177 173 170 169 168 168 170 172
245 255 266 274 271 283 290 283 268 271 279 288 292 299 302 302 305 306 308 309 311 311 311 313 311 307 304 303 286 273 276 245 214 212 202 188 184 186 181 179 177 180 184 184
246 258 261 269 278 279 271 276 275 274 278 288 294 290 289 291 294 298 300 300 303 306 308 311 309 304 302 304 296 282 270 238 228 224 211 200 195 192 192 193 194 193 197 195
247 257 261 265 269 274 284 291 294 287 291 298 298 294 289 290 292 294 292 295 299 301 305 306 304 301 301 304 301 298 280 246 235 230 216 204 198 198 197 195 199 209 201 205